FW7632 Weather Reports


Display with metric or nautical units.
time (UTC)temp
F
wind
direction
speed
MPH
gust
MPH
rain 1hr
in
rain 24hr
in
rain mn
in
humidity
%
barometer
mb
20260901104554 66 101 0.0 2.0 0.00 0.46 0.04 1 1013.3
20260901103059 66 101 0.0 1.0 0.00 0.46 0.04 1 1013.7
20260901101545 66 101 0.0 1.0 0.00 0.46 0.04 1 1013.3
20260901100041 66 101 0.0 2.0 0.00 0.46 0.04 1 1013.5
20260901094539 66 101 0.0 3.0 0.00 0.46 0.04 1 1013.4
20260901093034 66 101 0.0 1.0 0.00 0.46 0.04 1 1013.7
20260901091528 66 101 0.0 0.0 0.01 0.46 0.04 1 1013.7
20260901090023 66 101 0.0 0.0 0.02 0.46 0.04 1 1013.8
20260901084519 66 101 0.0 1.0 0.04 0.46 0.04 1 1014.2
20260901083015 66 101 0.0 1.0 0.04 0.46 0.04 1 1014.4
20260901081510 66 101 0.0 1.0 0.03 0.45 0.03 1 1014.5
20260901080006 66 101 0.0 1.0 0.02 0.44 0.02 1 1014.6
20260901074501 66 101 0.0 1.0 0.00 0.42 0.00 1 1014.4
20260901073105 66 101 0.0 0.0 0.00 0.42 0.00 1 1014.5
20260901071553 66 101 0.0 0.0 0.00 0.42 0.00 1 1014.7
20260901070051 66 101 0.0 1.0 0.00 0.42 0.00 1 1014.6
20260901064549 66 101 0.0 1.0 0.00 0.42 0.00 1 1014.6
20260901063050 66 101 0.0 1.0 0.00 0.42 0.00 1 1014.5
20260901061535 66 101 0.0 0.0 0.00 0.42 0.00 1 1014.8
20260901060030 66 101 0.0 0.0 0.00 0.42 0.00 1 1015.0
20260901054527 66 101 0.0 0.0 0.00 0.42 0.00 1 1015.2
20260901053025 66 101 0.0 0.0 0.00 0.42 0.00 1 1015.3
20260901051517 66 101 0.0 1.0 0.00 0.42 0.00 1 1015.4
20260901050013 66 101 0.0 0.0 0.00 0.42 0.00 1 1015.3
20260901044509 66 101 0.0 0.0 0.00 0.42 0.00 1 1015.5
20260901043006 66 101 0.0 0.0 0.00 0.42 0.00 1 1015.5
20260901041600 66 101 0.0 0.0 0.00 0.42 0.42 1 1015.4
20260901040056 66 101 0.0 0.0 0.00 0.42 0.42 1 1015.5
20260901034554 66 101 0.0 1.0 0.00 0.42 0.42 1 1015.5
20260901033048 67 101 0.0 0.0 0.00 0.42 0.42 1 1015.5
20260901031543 67 101 0.0 1.0 0.00 0.42 0.42 1 1015.6
20260901030038 67 101 0.0 1.0 0.00 0.42 0.42 1 1015.5
20260901024535 67 101 0.0 0.0 0.00 0.42 0.42 1 1015.5
20260901023030 68 101 0.0 1.0 0.00 0.42 0.42 1 1015.8
20260901021528 67 101 0.0 1.0 0.00 0.42 0.42 1 1015.7
20260901020023 67 101 0.0 1.0 0.01 0.42 0.42 1 1015.8
20260901014517 67 101 0.0 1.0 0.04 0.42 0.42 1 1015.9
20260901013012 67 101 0.0 1.0 0.05 0.42 0.42 1 1016.0
20260901011508 67 101 0.0 3.0 0.05 0.41 0.41 1 1016.1
20260901010003 68 101 1.0 3.0 0.05 0.41 0.41 1 1016.0
20260901004600 68 101 0.0 2.0 0.02 0.38 0.38 1 1015.8
20260901003055 68 101 0.0 2.0 0.01 0.37 0.37 1 1015.6
20260901001551 68 101 1.0 2.0 0.00 0.36 0.36 1 1015.4
20260901000046 68 101 0.0 2.0 0.00 0.36 0.36 1 1015.5
20260831234549 68 101 0.0 1.0 0.00 0.36 0.36 1 1015.6
20260831233041 68 101 0.0 2.0 0.01 0.36 0.36 1 1015.6
20260831231534 68 101 0.0 2.0 0.01 0.36 0.36 1 1015.8
20260831230030 68 101 0.0 3.0 0.02 0.36 0.36 1 1016.0
20260831224524 68 101 1.0 2.0 0.04 0.36 0.36 1 1016.1
20260831223025 68 101 0.0 2.0 0.03 0.35 0.35 1 1016.3
20260831221519 68 101 0.0 2.0 0.04 0.35 0.35 1 1016.5
20260831220012 69 101 0.0 2.0 0.02 0.33 0.33 1 1016.7
20260831214507 69 101 1.0 2.0 0.01 0.32 0.32 1 1016.6
20260831213003 69 101 0.0 1.0 0.01 0.32 0.32 1 1016.7
20260831211559 69 101 0.0 2.0 0.00 0.31 0.31 1 1016.8
20260831210054 69 101 1.0 2.0 0.01 0.31 0.31 1 1016.6
20260831204555 69 101 1.0 4.0 0.04 0.31 0.31 1 1016.7
20260831203049 69 101 0.0 2.0 0.06 0.31 0.31 1 1016.7
20260831201541 69 101 0.0 1.0 0.06 0.31 0.31 1 1016.8
20260831200037 69 100 0.0 3.0 0.05 0.30 0.30 1 1016.9
20260831194532 68 101 0.0 4.0 0.02 0.27 0.27 1 1016.8
20260831193051 69 101 1.0 3.0 0.00 0.25 0.25 1 1017.0
20260831191525 68 100 0.0 2.0 0.00 0.25 0.25 1 1017.1
20260831190024 68 100 0.0 4.0 0.00 0.25 0.25 1 1017.4
20260831184514 68 100 1.0 3.0 0.01 0.25 0.25 1 1017.6
20260831183012 68 99 1.0 3.0 0.01 0.25 0.25 1 1017.6
20260831181508 68 99 1.0 2.0 0.05 0.25 0.25 1 1017.9
20260831180105 68 99 0.0 3.0 0.06 0.25 0.25 1 1018.1
20260831174556 67 99 2.0 3.0 0.07 0.24 0.24 1 1018.2
20260831173052 68 99 0.0 2.0 0.08 0.24 0.24 1 1018.4
20260831171548 68 99 0.0 0.0 0.11 0.21 0.21 1 1018.6
20260831170044 68 99 0.0 2.0 0.19 0.19 0.19 1 1018.8
20260831164600 69 99 0.0 1.0 0.17 0.17 0.17 1 1018.8
20260831163035 70 100 0.0 0.0 0.16 0.16 0.16 1 1018.8
20260831161548 71 105 0.0 2.0 0.10 0.10 0.10 1 1019.0
20260831160030 71 98 0.0 0.0 0.00 0.00 0.00 1 1019.0
20260831154521 71 98 1.0 4.0 0.00 0.00 0.00 1 1018.6
20260831153017 71 98 0.0 2.0 0.00 0.00 0.00 1 1018.6
20260831151512 70 98 0.0 2.0 0.00 0.00 0.00 1 1018.7
20260831150008 70 98 2.0 4.0 0.00 0.00 0.00 1 1018.6
20260831144503 70 97 1.0 4.0 0.00 0.00 0.00 1 1018.6
20260831143059 69 98 0.0 3.0 0.00 0.00 0.00 1 1018.6
20260831141554 68 101 0.0 6.0 0.00 0.00 0.00 1 1018.7
20260831140053 67 103 3.0 9.0 0.00 0.00 0.00 1 1018.5
20260831134557 67 75 3.0 8.0 0.00 0.00 0.00 1 1018.6
20260831133042 66 108 3.0 6.0 0.00 0.00 0.00 1 1018.8
20260831131553 66 76 1.0 5.0 0.00 0.00 0.00 1 1019.0
20260831130040 65 74 1.0 4.0 0.00 0.00 0.00 1 1018.9
20260831124535 64 284 1.0 3.0 0.00 0.00 0.00 1 1018.9
20260831123025 64 281 1.0 3.0 0.00 0.00 0.00 1 1018.8
20260831121523 63 279 0.0 2.0 0.00 0.00 0.00 1 1019.0
20260831120014 63 280 0.0 2.0 0.00 0.00 0.00 1 1019.1
20260831114510 63 280 0.0 1.0 0.00 0.00 0.00 1 1019.0
20260831113006 63 279 0.0 2.0 0.00 0.00 0.00 1 1018.9
20260831111500 62 279 0.0 2.0 0.00 0.00 0.00 1 1019.0
20260831110057 62 279 0.0 0.0 0.00 0.00 0.00 1 1018.6